Flag for Jordan Weather past 2 weeks in Amman, Jordan

Now
54 °F

Clear.


Feels Like: 51 °F
Forecast: 43 / 57 °F
Wind: 9 mph from South

Location: Amman Airport

Current Time: Dec 29, 2014 at 12:21:31 PM

Latest Report: Dec 29, 2014 at 11:00 AM


Visibility: 4 mi

Pressure: 30.21 "Hg

Humidity: 51%

Dew point: 36 °F

Location of AmmanLocation

Historic Weather in Amman — Graph

°F

Amman temperature yesterday

Maximum temperature yesterday: 55 °F (at 3:00 PM)
Minimum temperature yesterday: 48 °F (at 9:00 PM)
Average temperature yesterday: 52 °F

Past Weeks' High & Low Weather Summary

 TemperatureHumidityPressure
High61 °F (Dec 17, 3:00 PM)100% (Dec 15, 1:00 AM)30.33 "Hg (Dec 15, 1:00 AM)
Low41 °F (Dec 25, 8:00 AM)36% (Dec 27, 3:00 PM)30.04 "Hg (Dec 22, 2:00 PM)
Average51 °F72%30.16 "Hg
* Reported Dec 14 11:00 AM — Dec 29 11:00 AM, Amman, Weather by CustomWeather, © 2014

Note: Actual official high and low records may vary slightly from our data, if they occured in-between our weather recording intervals... More about our weather records

Advertising

Amman weather history for previous 24 hours

 ConditionsComfort  
Time TempWeatherWind HumidityBarometerVisibility
11:00 AM
Dec 29
54 °FClear.9 mph51%30.21 "Hg4 mi
10:00 AM54 °FHaze.12 mph51%30.24 "Hg3 mi
9:00 AM50 °FHaze.5 mph67%30.27 "Hg3 mi
8:00 AM45 °FHaze.5 mph71%30.21 "Hg2 mi
7:00 AM45 °FHaze.No wind71%30.21 "Hg2 mi
6:00 AM43 °FHaze.No wind76%30.18 "Hg3 mi
5:00 AM43 °FHaze.No wind76%30.18 "Hg3 mi
4:00 AM45 °FHaze.2 mph76%30.21 "Hg3 mi
3:00 AM45 °FHaze.3 mph76%30.21 "Hg3 mi
2:00 AM43 °FHaze.No wind81%30.21 "Hg2 mi
1:00 AM45 °FHaze.No wind81%30.21 "Hg2 mi
12:00 AM46 °FHaze.No wind76%30.21 "Hg3 mi
11:00 PM
Dec 28
48 °FHaze.No wind71%30.21 "Hg3 mi
10:00 PM50 °FHaze.No wind67%30.21 "Hg3 mi
9:00 PM48 °FHaze.6 mph71%30.21 "Hg3 mi
8:00 PM50 °FHaze.3 mph71%30.18 "Hg3 mi
7:00 PM50 °FHaze.5 mph76%30.18 "Hg3 mi
6:00 PM52 °FHaze.7 mph67%30.15 "Hg3 mi
5:00 PM52 °FPassing clouds.7 mph67%30.15 "Hg4 mi
4:00 PM54 °FScattered clouds.12 mph67%30.15 "Hg4 mi
3:00 PM55 °FScattered clouds.12 mph59%30.12 "Hg4 mi
2:00 PM54 °FPartly sunny.14 mph58%30.12 "Hg3 mi
1:00 PM54 °FPartly sunny.12 mph58%30.12 "Hg3 mi
12:00 PM54 °FPartly sunny.7 mph67%30.12 "Hg2 mi
Weather by CustomWeather, © 2014

See weather overviewHow to use our weather pages